Girdwood, AK

2:36 AM AKST on February 27, 2017 (GMT -0900)
Portage Glacier

Weather History for PATO - September, 2013

Change the Weather History Date:

Monday, September 16, 2013

  Actual Average (PAWR) Record (PAWR)
Temperature  
Mean Temperature 44 °F -  
Max Temperature 53 °F 53 °F 70 °F (1957)
Min Temperature 35 °F 44 °F 35 °F (2003)
Degree Days  
Heating Degree Days 22    
Moisture  
Dew Point 39 °F    
Average Humidity 94    
Maximum Humidity 100    
Minimum Humidity 63    
Precipitation  
Precipitation 0.00 in - - ()
Sea Level Pressure  
Sea Level Pressure 29.61 in    
Wind  
Wind Speed 1 mph (WNW)    
Max Wind Speed 7 mph    
Max Gust Speed -    
Visibility 5 miles    
Events Fog , Rain    
Averages and records for this station are not official NWS values.
T = Trace of Precipitation, MM = Missing Value Source: NWS Daily Summary

Daily Weather History Graph

Daily Weather History Graph

Search for Another Location

Airport or City:

Trip Planner

Search our weather history database for the weather conditions in past years. The results will help you decide how hot, cold, wet, or windy it might be!

Date:

Astronomy

Sep. 16, 2013 Rise Set
Actual Time 7:25 AM AKDT 8:12 PM AKDT
Civil Twilight 6:42 AM AKDT 8:55 PM AKDT
Nautical Twilight 5:49 AM AKDT 9:48 PM AKDT
Astronomical Twilight 4:49 AM AKDT 10:47 PM AKDT
Moon 6:54 PM AKDT (9/16) 3:45 AM AKDT (9/16)
Length of Visible Light 14h 12m
Length of Day
12h 46m
Waxing Gibbous, 91% of the Moon is Illuminated
Sep 16
Waxing Gibbous
Sep 19
Full
Sep 26
Last Quarter
Oct 4
New
Oct 11
First Quarter

Hourly Weather History & Observations

Time (AKDT) Temp. Windchill Dew Point Humidity Pressure Visibility Wind Dir Wind Speed Gust Speed Precip Events Conditions
12:51 AM 35.6 °F - 35.6 °F 100% 29.70 in 10.0 mi Calm Calm - N/A   Partly Cloudy
12:53 AM 35.1 °F - 35.1 °F 100% 29.70 in 10.0 mi Calm Calm - N/A   Partly Cloudy
1:08 AM 35.1 °F - 35.1 °F 100% 29.70 in 5.0 mi Calm Calm - N/A   Mostly Cloudy
1:37 AM 36.0 °F - 35.1 °F 97% 29.69 in 1.5 mi Calm Calm - N/A   Overcast
1:45 AM 35.1 °F - 35.1 °F 100% 29.69 in 0.8 mi Calm Calm - N/A   Overcast
1:53 AM 36.0 °F - 36.0 °F 100% 29.70 in 1.8 mi Calm Calm - N/A   Overcast
1:55 AM 36.0 °F - 36.0 °F 100% 29.69 in 3.0 mi Calm Calm - N/A   Overcast
2:04 AM 37.0 °F - 37.0 °F 100% 29.69 in 10.0 mi Calm Calm - N/A   Overcast
2:25 AM 37.0 °F - 37.0 °F 100% 29.69 in 2.5 mi Calm Calm - N/A   Overcast
2:41 AM 37.9 °F - 37.9 °F 100% 29.69 in 1.2 mi Calm Calm - N/A   Overcast
2:53 AM 37.9 °F - 37.9 °F 100% 29.69 in 0.2 mi Calm Calm - N/A Fog Fog
3:53 AM 37.0 °F - 37.0 °F 100% 29.68 in 0.2 mi Calm Calm - N/A Fog Fog
4:53 AM 37.9 °F - 37.9 °F 100% 29.66 in 0.2 mi Calm Calm - N/A Fog Fog
5:53 AM 37.0 °F - 37.0 °F 100% 29.65 in 0.2 mi Calm Calm - N/A Fog Fog
6:29 AM 37.0 °F - 37.0 °F 100% 29.64 in 0.5 mi Calm Calm - N/A Fog Fog
6:53 AM 37.0 °F - 37.0 °F 100% 29.64 in 0.2 mi Calm Calm - N/A Fog Fog
7:16 AM 36.0 °F - 36.0 °F 100% 29.63 in 0.5 mi Calm Calm - N/A Fog Fog
7:41 AM 36.0 °F - 36.0 °F 100% 29.62 in 0.2 mi Calm Calm - N/A Fog Fog
7:53 AM 36.0 °F - 36.0 °F 100% 29.63 in 0.2 mi Calm Calm - N/A Fog Fog
8:53 AM 36.0 °F - 36.0 °F 100% 29.61 in 0.2 mi Calm Calm - N/A Fog Fog
9:17 AM 37.0 °F 33.3 °F 37.0 °F 100% 29.60 in 0.5 mi WNW 4.6 mph - N/A Fog Fog
9:53 AM 37.9 °F - 37.9 °F 100% 29.61 in 0.5 mi Calm Calm - N/A Fog Fog
10:06 AM 39.0 °F - 39.0 °F 100% 29.60 in 1.5 mi Calm Calm - N/A   Overcast
10:16 AM 39.9 °F 37.8 °F 39.9 °F 100% 29.60 in 3.0 mi WNW 3.5 mph - N/A   Overcast
10:28 AM 39.9 °F - 39.9 °F 100% 29.60 in 1.8 mi Calm Calm - N/A   Overcast
10:47 AM 42.8 °F 41.1 °F 42.8 °F 100% 29.59 in 3.0 mi Variable 3.5 mph - N/A   Mostly Cloudy
10:53 AM 41.0 °F - 41.0 °F 100% 29.60 in 9.0 mi Calm Calm - N/A   Mostly Cloudy
11:01 AM 39.9 °F - 39.9 °F 100% 29.59 in 1.8 mi Calm Calm - N/A   Mostly Cloudy
11:16 AM 42.1 °F - 42.1 °F 100% 29.59 in 3.0 mi Calm Calm - N/A   Overcast
11:43 AM 43.0 °F - 43.0 °F 100% 29.58 in 10.0 mi Calm Calm - N/A   Partly Cloudy
11:53 AM 43.0 °F - 43.0 °F 100% 29.58 in 10.0 mi Calm Calm - N/A   Partly Cloudy
12:53 PM 48.0 °F - 41.0 °F 77% 29.57 in 10.0 mi Variable 4.6 mph - N/A   Clear
1:53 PM 48.9 °F - 41.0 °F 74% 29.56 in 10.0 mi NW 3.5 mph - N/A   Mostly Cloudy
2:53 PM 50.0 °F - 41.0 °F 71% 29.55 in 10.0 mi Variable 3.5 mph - N/A   Scattered Clouds
3:53 PM 52.0 °F - 43.0 °F 71% 29.54 in 10.0 mi WNW 5.8 mph - N/A   Mostly Cloudy
4:53 PM 52.0 °F - 39.9 °F 63% 29.53 in 10.0 mi WNW 6.9 mph - N/A   Overcast
5:53 PM 52.0 °F - 42.1 °F 69% 29.52 in 10.0 mi Calm Calm - N/A   Overcast
6:53 PM 48.0 °F - 42.1 °F 80% 29.52 in 10.0 mi Calm Calm - N/A   Overcast
7:53 PM 46.9 °F - 39.9 °F 77% 29.52 in 10.0 mi Calm Calm - N/A   Overcast
8:53 PM 45.0 °F - 41.0 °F 86% 29.52 in 10.0 mi Calm Calm - N/A   Overcast
9:53 PM 44.1 °F 42.5 °F 39.9 °F 85% 29.52 in 10.0 mi Variable 3.5 mph - N/A   Overcast
10:53 PM 43.0 °F - 42.1 °F 97% 29.52 in 10.0 mi Calm Calm - 0.00 in Rain Light Rain
11:53 PM 43.0 °F - 43.0 °F 100% 29.51 in 10.0 mi Calm Calm - 0.00 in Rain Light Rain